Location: Newark
(23.5328°S, 46.7919°W)
Time: 03:45:46
(UTC+00:00)

Envisat - Pass Details

Date: 06 March 2021
Orbit: 764 x 766 km, 98.1° (Epoch: 18 April)

Event Time Altitude Azimuth Distance (km) Brightness Sun altitude
Rises 06:49:13 0° 61° (ENE) 3,223 6.7 -31.0°
Reaches altitude 10° 06:53:23 10° 95° (E) 2,307 6.3 -30.1°
Maximum altitude 06:54:48 11° 111° (ESE) 2,233 6.3 -29.8°
Drops below altitude 10° 06:56:13 10° 128° (SE) 2,314 6.3 -29.5°
Sets 07:00:23 0° 161° (SSE) 3,251 6.8 -28.6°
